Location: Unspecified
(0.0000°N, 0.0000°E)
Time: 08:11:19
(UTC+00:00)

Amsat-Oscar-6 - Pass Details

Date: 04 May 2019
Orbit: 1448 x 1455 km, 101.8° (Epoch: 22 May)

Event Time Altitude Azimuth Distance (km) Brightness Sun altitude
Rises 02:59:23 0° 20° (NNE) 4,534 ? -42.3°
Reaches altitude 10° 03:02:09 10° 23° (NNE) 3,559 ? -41.6°
Enters shadow 03:09:30 67° 64° (ENE) 1,554 ? -39.9°
